Weather History for Madisonville, KY

Change the Weather History Date:

Monday, February 11, 2013

  Actual Average (KOWB) Record (KOWB)
Temperature  
Mean Temperature 48 °F -  
Max Temperature 57 °F 47 °F 75 °F (1999)
Min Temperature 38 °F 26 °F 1 °F (1955)
Degree Days  
Heating Degree Days 18    
Moisture  
Dew Point 36 °F    
Average Humidity 64    
Maximum Humidity 92    
Minimum Humidity 43    
Precipitation  
Precipitation 0.00 in - - ()
Sea Level Pressure  
Sea Level Pressure 30.05 in    
Wind  
Wind Speed 14 mph (WSW)    
Max Wind Speed 20 mph    
Max Gust Speed 28 mph    
Visibility 10 miles    
Events      
Averages and records for this station are not official NWS values.
T = Trace of Precipitation, MM = Missing Value Source: NWS Daily Summary

Daily Weather History Graph

Daily Weather History Graph

Search for Another Location

Airport:

Trip Planner

Search our weather history database for the weather conditions in past years. The results will help you decide how hot, cold, wet, or windy it might be!

Date:

Astronomy

Feb. 11, 2013 Rise Set
Actual Time 6:42 AM CST 5:25 PM CST
Civil Twilight 6:15 AM CST 5:52 PM CST
Nautical Twilight 5:45 AM CST 6:22 PM CST
Astronomical Twilight 5:14 AM CST 6:53 PM CST
Moon 7:10 AM CST (2/11) 7:17 PM CST (2/11)
Length of Visible Light 11h 36m
Length of Day
10h 42m
Waxing Crescent, 3% of the Moon is Illuminated
Feb 11
Waxing Crescent
Feb 17
First Quarter
Feb 25
Full
Mar 4
Last Quarter
Mar 11
New

Hourly Weather History & Observations

Time (CST) Temp. Windchill Dew Point Humidity Pressure Visibility Wind Dir Wind Speed Gust Speed Precip Events Conditions
12:15 AM 57.6 °F - 55.4 °F 92% 29.86 in 10.0 mi WSW 16.1 mph - N/A   Mostly Cloudy
12:35 AM 57.4 °F - 55.0 °F 92% 29.86 in 10.0 mi WSW 17.3 mph 20.7 mph N/A   Mostly Cloudy
12:55 AM 56.7 °F - 54.5 °F 92% 29.86 in 10.0 mi WSW 15.0 mph - N/A   Scattered Clouds
1:15 AM 56.5 °F - 54.1 °F 92% 29.87 in 10.0 mi WSW 16.1 mph - N/A   Clear
1:35 AM 56.7 °F - 53.4 °F 89% 29.88 in 10.0 mi WSW 15.0 mph - N/A   Clear
1:55 AM 56.8 °F - 51.4 °F 82% 29.88 in 10.0 mi WSW 18.4 mph 27.6 mph N/A   Clear
2:15 AM 55.8 °F - 50.2 °F 82% 29.89 in 10.0 mi West 16.1 mph - N/A   Clear
2:35 AM 55.8 °F - 48.2 °F 76% 29.89 in 10.0 mi West 18.4 mph 23.0 mph N/A   Clear
3:15 AM 53.4 °F - 45.5 °F 75% 29.89 in 10.0 mi WSW 16.1 mph - N/A   Clear
3:35 AM 53.6 °F - 44.6 °F 72% 29.90 in 10.0 mi WSW 13.8 mph - N/A   Clear
3:55 AM 52.7 °F - 43.2 °F 70% 29.91 in 10.0 mi West 16.1 mph 23.0 mph N/A   Clear
4:15 AM 52.2 °F - 41.2 °F 66% 29.92 in 10.0 mi WSW 18.4 mph 23.0 mph N/A   Clear
4:35 AM 51.6 °F - 38.5 °F 61% 29.94 in 10.0 mi West 15.0 mph 25.3 mph N/A   Clear
4:55 AM 51.1 °F - 36.3 °F 57% 29.94 in 10.0 mi West 19.6 mph 25.3 mph N/A   Clear
5:15 AM 50.4 °F - 35.4 °F 57% 29.96 in 10.0 mi West 19.6 mph 27.6 mph N/A   Clear
5:35 AM 49.3 °F - 34.9 °F 58% 29.96 in 10.0 mi West 15.0 mph 20.7 mph N/A   Clear
5:55 AM 48.2 °F - 34.7 °F 60% 29.98 in 10.0 mi West 10.4 mph - N/A   Clear
6:15 AM 47.1 °F - 34.2 °F 61% 29.99 in 10.0 mi West 11.5 mph 19.6 mph N/A   Clear
6:35 AM 45.7 °F 41.5 °F 34.2 °F 64% 30.01 in 10.0 mi West 8.1 mph - N/A   Clear
6:55 AM 44.2 °F 39.2 °F 33.8 °F 67% 30.03 in 10.0 mi West 9.2 mph - N/A   Clear
7:15 AM 44.1 °F 39.5 °F 33.4 °F 66% 30.05 in 10.0 mi West 8.1 mph - N/A   Clear
7:35 AM 43.7 °F 38.6 °F 33.4 °F 67% 30.05 in 10.0 mi West 9.2 mph - N/A   Clear
7:55 AM 44.8 °F 39.4 °F 34.0 °F 66% 30.06 in 10.0 mi West 10.4 mph - N/A   Clear
8:15 AM 45.3 °F 39.3 °F 32.7 °F 61% 30.06 in 10.0 mi West 12.7 mph 16.1 mph N/A   Clear
8:35 AM 45.7 °F 40.6 °F 32.9 °F 61% 30.07 in 10.0 mi West 10.4 mph 17.3 mph N/A   Clear
8:55 AM 45.3 °F 38.4 °F 32.4 °F 61% 30.07 in 10.0 mi West 16.1 mph 20.7 mph N/A   Clear
9:15 AM 45.9 °F 39.7 °F 32.4 °F 59% 30.08 in 10.0 mi West 13.8 mph 20.7 mph N/A   Clear
9:35 AM 45.7 °F 39.5 °F 31.8 °F 58% 30.09 in 10.0 mi West 13.8 mph 20.7 mph N/A   Clear
9:55 AM 46.8 °F - 32.4 °F 57% 30.10 in 10.0 mi West 13.8 mph - N/A   Clear
10:15 AM 47.3 °F - 32.9 °F 57% 30.09 in 10.0 mi West 15.0 mph - N/A   Clear
10:35 AM 47.5 °F - 32.5 °F 56% 30.09 in 10.0 mi West 11.5 mph - N/A   Clear
10:55 AM 48.6 °F - 33.1 °F 55% 30.09 in 10.0 mi West 12.7 mph - N/A   Clear
11:15 AM 48.4 °F - 32.2 °F 54% 30.09 in 10.0 mi West 15.0 mph 20.7 mph N/A   Clear
11:35 AM 49.5 °F - 33.4 °F 54% 30.10 in 10.0 mi West 13.8 mph 19.6 mph N/A   Clear
11:55 AM 49.6 °F - 33.6 °F 54% 30.09 in 10.0 mi West 12.7 mph 20.7 mph N/A   Clear
12:15 PM 49.8 °F - 33.6 °F 54% 30.09 in 10.0 mi WSW 15.0 mph - N/A   Clear
12:35 PM 50.0 °F - 34.0 °F 54% 30.09 in 10.0 mi WSW 11.5 mph 19.6 mph N/A   Clear
12:55 PM 51.1 °F - 34.3 °F 53% 30.09 in 10.0 mi WSW 18.4 mph 21.9 mph N/A   Clear
1:15 PM 52.3 °F - 34.3 °F 50% 30.09 in 10.0 mi West 16.1 mph 23.0 mph N/A   Clear
1:35 PM 52.5 °F - 34.3 °F 50% 30.09 in 10.0 mi WSW 15.0 mph 24.2 mph N/A   Clear
1:55 PM 53.4 °F - 34.7 °F 49% 30.08 in 10.0 mi West 12.7 mph 19.6 mph N/A   Clear
2:15 PM 53.4 °F - 34.2 °F 48% 30.08 in 10.0 mi West 11.5 mph 20.7 mph N/A   Clear
2:35 PM 54.3 °F - 34.5 °F 47% 30.08 in 10.0 mi West 13.8 mph 19.6 mph N/A   Clear
2:55 PM 54.0 °F - 33.1 °F 45% 30.08 in 10.0 mi West 15.0 mph - N/A   Clear
3:15 PM 54.5 °F - 32.9 °F 44% 30.09 in 10.0 mi West 13.8 mph - N/A   Clear
3:35 PM 53.8 °F - 32.7 °F 45% 30.08 in 10.0 mi West 12.7 mph - N/A   Clear
3:55 PM 54.5 °F - 32.5 °F 43% 30.07 in 10.0 mi West 13.8 mph 17.3 mph N/A   Clear
4:55 PM 51.8 °F - 32.7 °F 48% 30.08 in 10.0 mi West 10.4 mph - N/A   Clear
5:15 PM 50.2 °F - 33.3 °F 52% 30.08 in 10.0 mi West 9.2 mph - N/A   Clear
5:35 PM 48.2 °F - 33.4 °F 57% 30.09 in 10.0 mi WSW 9.2 mph - N/A   Clear
5:55 PM 46.8 °F - 33.8 °F 61% 30.09 in 10.0 mi WSW 9.2 mph - N/A   Clear
6:15 PM 45.3 °F 41.1 °F 34.9 °F 67% 30.10 in 10.0 mi WSW 8.1 mph - N/A   Clear
6:35 PM 45.7 °F 41.0 °F 32.9 °F 61% 30.11 in 10.0 mi WSW 9.2 mph - N/A   Clear
6:55 PM 45.7 °F 41.5 °F 32.5 °F 60% 30.11 in 10.0 mi WSW 8.1 mph - N/A   Clear
7:15 PM 43.3 °F 39.9 °F 32.5 °F 66% 30.11 in 10.0 mi WSW 5.8 mph - N/A   Clear
7:35 PM 43.0 °F 39.5 °F 32.7 °F 67% 30.11 in 10.0 mi SW 5.8 mph - N/A   Clear
7:55 PM 42.4 °F 38.1 °F 32.5 °F 68% 30.12 in 10.0 mi WSW 6.9 mph - N/A   Clear
8:15 PM 41.9 °F 36.9 °F 32.9 °F 70% 30.13 in 10.0 mi WSW 8.1 mph - N/A   Clear
8:35 PM 41.4 °F 36.8 °F 32.7 °F 71% 30.13 in 10.0 mi WSW 6.9 mph - N/A   Clear
8:55 PM 41.9 °F 36.9 °F 32.7 °F 70% 30.13 in 10.0 mi WSW 8.1 mph - N/A   Clear
9:15 PM 42.6 °F 38.4 °F 32.5 °F 68% 30.14 in 10.0 mi West 6.9 mph - N/A   Clear
9:35 PM 41.5 °F 37.1 °F 32.0 °F 69% 30.14 in 10.0 mi West 6.9 mph - N/A   Clear
9:55 PM 41.9 °F 37.5 °F 32.0 °F 68% 30.15 in 10.0 mi West 6.9 mph - N/A   Clear
10:15 PM 41.2 °F 36.0 °F 32.4 °F 71% 30.15 in 10.0 mi West 8.1 mph - N/A   Clear
10:35 PM 41.2 °F 37.3 °F 32.2 °F 70% 30.15 in 10.0 mi West 5.8 mph - N/A   Clear
10:55 PM 39.4 °F 35.2 °F 32.4 °F 76% 30.16 in 10.0 mi WSW 5.8 mph - N/A   Clear
11:15 PM 38.5 °F 35.0 °F 32.0 °F 78% 30.15 in 10.0 mi WSW 4.6 mph - N/A   Clear
11:35 PM 39.6 °F 35.4 °F 32.0 °F 74% 30.15 in 10.0 mi West 5.8 mph - N/A   Clear
11:55 PM 40.3 °F 35.5 °F 32.0 °F 72% 30.15 in 10.0 mi West 6.9 mph - N/A   Clear